DW4273 Weather Reports


Display with metric or nautical units.
time (UTC)temp
F
wind
direction
speed
MPH
gust
MPH
rain 1hr
in
rain 24hr
in
rain mn
in
humidity
%
barometer
mb
20260901133516 81 225 8.0 14.0 0.00 0.00 0.00 75 1014.7
20260901132516 81 225 8.0 11.0 0.00 0.00 0.00 75 1014.6
20260901131536 81 225 8.0 12.0 0.00 0.00 0.00 75 1014.8
20260901130516 81 248 9.0 14.0 0.00 0.00 0.00 75 1014.8
20260901125536 80 248 9.0 15.0 0.00 0.00 0.00 76 1014.9
20260901124536 79 225 9.0 12.0 0.00 0.00 0.00 78 1014.8
20260901123557 79 225 8.0 14.0 0.00 0.00 0.00 79 1014.9
20260901122517 78 225 6.0 9.0 0.00 0.00 0.00 80 1014.9
20260901121516 78 225 7.0 13.0 0.00 0.00 0.00 80 1014.9
20260901120517 78 225 7.0 11.0 0.00 0.00 0.00 80 1014.9
20260901115517 77 225 7.0 11.0 0.00 0.00 0.00 81 1014.8
20260901114517 77 248 7.0 10.0 0.00 0.00 0.00 81 1014.8
20260901113516 77 248 8.0 12.0 0.00 0.00 0.00 82 1014.8
20260901112537 77 248 7.0 10.0 0.00 0.00 0.00 83 1014.6
20260901111516 76 225 6.0 10.0 0.00 0.00 0.00 84 1014.5
20260901110517 75 225 6.0 9.0 0.00 0.00 0.00 85 1014.4
20260901105517 75 225 4.0 7.0 0.00 0.00 0.00 85 1014.4
20260901104538 75 225 5.0 7.0 0.00 0.00 0.00 85 1014.3
20260901103517 75 203 4.0 6.0 0.00 0.00 0.00 85 1014.3
20260901102516 75 203 5.0 7.0 0.00 0.00 0.00 85 1014.2
20260901101537 75 203 6.0 8.0 0.00 0.00 0.00 85 1014.2
20260901100516 75 203 5.0 7.0 0.00 0.00 0.00 86 1014.2
20260901095517 75 225 4.0 7.0 0.00 0.00 0.00 86 1014.1
20260901094517 75 225 5.0 7.0 0.00 0.00 0.00 86 1014.2
20260901093516 75 203 5.0 7.0 0.00 0.00 0.00 86 1014.2
20260901092517 75 203 5.0 6.0 0.00 0.00 0.00 86 1014.1
20260901091517 75 225 5.0 8.0 0.00 0.00 0.00 86 1014.1
20260901090517 74 225 5.0 8.0 0.00 0.00 0.00 86 1014.1
20260901085557 74 203 5.0 7.0 0.00 0.00 0.00 86 1014.2
20260901084517 74 203 5.0 7.0 0.00 0.00 0.00 87 1014.2
20260901083537 74 203 4.0 7.0 0.00 0.00 0.00 87 1014.2
20260901082543 74 225 3.0 5.0 0.00 0.00 0.00 87 1014.2
20260901082017 74 203 3.0 6.0 0.00 0.00 0.00 87 1014.3
20260901081017 74 203 4.0 6.0 0.00 0.00 0.00 87 1014.3
20260901080017 74 203 5.0 7.0 0.00 0.00 0.00 86 1014.3
20260901075016 74 225 5.0 9.0 0.00 0.00 0.00 86 1014.3
20260901074017 74 203 5.0 7.0 0.00 0.00 0.00 87 1014.4
20260901073037 74 203 4.0 6.0 0.00 0.00 0.00 87 1014.3
20260901072017 74 203 5.0 7.0 0.00 0.00 0.00 87 1014.3
20260901071016 74 180 3.0 4.0 0.00 0.00 0.00 87 1014.4
20260901070057 74 203 3.0 5.0 0.00 0.00 0.00 87 1014.6
20260901065037 74 203 3.0 5.0 0.00 0.00 0.00 87 1014.6
20260901064016 74 203 4.0 6.0 0.00 0.00 0.00 87 1014.5
20260901063017 74 180 3.0 5.0 0.00 0.00 0.00 87 1014.6
20260901062017 74 158 1.0 3.0 0.00 0.00 0.00 86 1014.6
20260901061037 74 180 1.0 4.0 0.00 0.00 0.00 87 1014.5
20260901060016 74 180 2.0 4.0 0.00 0.00 0.00 86 1014.6
20260901055037 74 180 3.0 6.0 0.00 0.00 0.00 86 1014.7
20260901054037 74 180 4.0 6.0 0.00 0.00 0.00 86 1014.9
20260901053037 74 203 3.0 4.0 0.00 0.00 0.00 86 1014.8
20260901052017 74 180 2.0 5.0 0.00 0.00 0.00 87 1014.7
20260901051017 74 158 3.0 7.0 0.00 0.00 0.00 87 1014.7
20260901050017 74 180 3.0 5.0 0.00 0.00 0.00 87 1014.7
20260901045017 74 180 2.0 4.0 0.00 0.00 0.00 87 1014.7
20260901044017 74 180 1.0 4.0 0.00 0.00 0.00 87 1014.9
20260901043037 74 0.0 2.0 0.00 0.00 0.00 87 1014.9
20260901042017 73 0.0 2.0 0.00 0.00 0.00 87 1014.9
20260901041057 73 135 1.0 5.0 0.00 0.00 0.00 87 1014.7
20260901040037 73 135 1.0 2.0 0.00 0.00 0.00 86 1014.8
20260901035016 74 0.0 0.0 0.00 0.00 0.00 85 1015.0
20260901034016 74 0.0 0.0 0.00 0.00 0.00 85 1015.0
20260901033016 75 0.0 1.0 0.00 0.00 0.00 84 1015.0
20260901032016 75 0.0 0.0 0.00 0.00 0.00 84 1014.7
20260901031016 75 0.0 1.0 0.00 0.00 0.00 83 1014.4
20260901030016 75 0.0 2.0 0.00 0.00 0.00 83 1014.3
20260901025036 75 0.0 0.0 0.00 0.00 0.00 83 1014.4
20260901024016 76 113 1.0 3.0 0.00 0.00 0.00 83 1014.2
20260901023016 76 90 2.0 3.0 0.00 0.00 0.00 83 1014.3
20260901022016 76 113 2.0 4.0 0.00 0.00 0.00 83 1014.4
20260901021037 76 90 2.0 3.0 0.00 0.00 0.00 82 1014.6
20260901020016 76 90 1.0 2.0 0.00 0.00 0.00 81 1014.7
20260901015017 77 90 2.0 3.0 0.00 0.00 0.00 80 1014.8
20260901014016 78 0.0 3.0 0.00 0.00 0.00 79 1014.6
20260901013016 78 90 4.0 7.0 0.00 0.00 0.00 79 1013.7
20260901012016 78 203 1.0 4.0 0.00 0.00 0.00 79 1014.1
20260901011526 78 180 3.0 4.0 0.00 0.00 0.00 79 1014.0
20260901011057 78 180 3.0 5.0 0.00 0.00 0.00 79 1013.8
20260901010016 78 158 2.0 5.0 0.00 0.00 0.00 80 1013.9
20260901005016 78 180 4.0 7.0 0.00 0.00 0.00 79 1013.7
20260901004036 78 203 3.0 4.0 0.00 0.00 0.00 80 1014.5
20260901003057 78 225 3.0 4.0 0.00 0.00 0.00 79 1014.8
20260901002016 78 225 4.0 7.0 0.00 0.00 0.00 78 1014.9
20260901001016 79 225 4.0 6.0 0.00 0.00 0.00 77 1015.0
20260901000016 80 248 2.0 3.0 0.00 0.00 0.00 76 1015.2
20260831235036 80 248 1.0 3.0 0.00 0.00 0.00 73 1015.6
20260831234016 81 270 1.0 2.0 0.00 0.00 0.00 72 1015.5
20260831233017 81 270 1.0 3.0 0.00 0.00 0.00 71 1015.4
20260831232016 81 248 1.0 3.0 0.00 0.00 0.00 71 1015.5
20260831231036 82 248 4.0 6.0 0.00 0.00 0.00 71 1015.4
20260831230036 82 248 5.0 7.0 0.00 0.00 0.00 70 1015.6
20260831225016 83 248 5.0 9.0 0.00 0.00 0.00 69 1015.5
20260831224016 84 248 4.0 9.0 0.00 0.00 0.00 69 1015.5
20260831223037 84 248 3.0 5.0 0.00 0.00 0.00 69 1015.5
20260831222017 85 248 2.0 4.0 0.00 0.00 0.00 67 1015.3
20260831221016 84 203 3.0 5.0 0.00 0.00 0.00 66 1015.2
20260831220017 84 203 2.0 5.0 0.00 0.00 0.00 66 1015.0
20260831215037 84 225 3.0 5.0 0.00 0.00 0.00 67 1015.0
20260831214017 85 225 4.0 5.0 0.00 0.00 0.00 67 1015.2
20260831213016 84 248 3.0 5.0 0.00 0.00 0.00 68 1015.4
20260831212016 84 293 2.0 3.0 0.00 0.00 0.00 67 1015.4
20260831211036 84 270 1.0 3.0 0.00 0.00 0.00 68 1015.4
20260831210017 84 248 2.0 4.0 0.00 0.00 0.00 67 1015.5
20260831205016 84 270 2.0 4.0 0.00 0.00 0.00 66 1015.5
20260831204016 84 293 1.0 3.0 0.00 0.00 0.00 67 1015.4
20260831203016 83 270 1.0 2.0 0.00 0.00 0.00 67 1015.3
20260831202017 83 0.0 0.0 0.00 0.00 0.00 68 1015.1
20260831201016 83 248 2.0 2.0 0.00 0.00 0.00 66 1015.1
20260831200017 83 158 1.0 2.0 0.00 0.00 0.00 67 1015.1
20260831195057 83 180 3.0 5.0 0.00 0.00 0.00 64 1015.0
20260831194036 84 225 4.0 7.0 0.00 0.00 0.00 61 1015.5
20260831193016 85 248 6.0 7.0 0.00 0.00 0.00 59 1015.7
20260831192016 86 248 6.0 8.0 0.00 0.00 0.00 61 1015.8
20260831191016 86 248 5.0 10.0 0.00 0.00 0.00 60 1015.9
20260831190017 87 248 6.0 11.0 0.00 0.00 0.00 56 1016.1
20260831185016 87 248 8.0 13.0 0.00 0.00 0.00 55 1016.1
20260831184117 86 270 7.0 13.0 0.00 0.00 0.00 58 1016.3
20260831183017 85 270 8.0 13.0 0.00 0.00 0.00 60 1016.5
20260831182016 87 248 12.0 20.0 0.00 0.00 0.00 59 1016.6
20260831181017 87 248 10.0 16.0 0.00 0.00 0.00 60 1016.6
20260831180017 86 270 6.0 11.0 0.00 0.00 0.00 60 1016.7
20260831175017 86 270 5.0 10.0 0.00 0.00 0.00 60 1016.7
20260831174036 86 248 9.0 16.0 0.00 0.00 0.00 60 1016.7
20260831173037 85 248 8.0 14.0 0.00 0.00 0.00 63 1016.8
20260831172016 85 248 9.0 12.0 0.00 0.00 0.00 63 1016.9
20260831171017 85 248 8.0 11.0 0.00 0.00 0.00 62 1017.0
20260831170057 85 248 9.0 12.0 0.00 0.00 0.00 63 1016.9
20260831165036 84 248 7.0 10.0 0.00 0.00 0.00 65 1017.0
20260831164017 85 225 8.0 11.0 0.00 0.00 0.00 63 1017.1
20260831163057 85 225 9.0 13.0 0.00 0.00 0.00 62 1017.0
20260831162017 84 225 9.0 14.0 0.00 0.00 0.00 64 1017.0
20260831161016 84 248 6.0 8.0 0.00 0.00 0.00 66 1017.1
20260831160017 84 225 8.0 11.0 0.00 0.00 0.00 65 1017.0
20260831155017 84 225 7.0 10.0 0.00 0.00 0.00 65 1017.0
20260831154017 84 225 7.0 9.0 0.00 0.00 0.00 64 1017.0
20260831153016 83 225 8.0 13.0 0.00 0.00 0.00 65 1016.9
20260831152017 82 225 5.0 8.0 0.00 0.00 0.00 67 1016.9
20260831151016 81 203 5.0 7.0 0.00 0.00 0.00 71 1016.9
20260831150017 80 225 5.0 8.0 0.00 0.00 0.00 75 1017.0
20260831145057 79 225 5.0 7.0 0.00 0.00 0.00 78 1017.0
20260831144017 77 180 4.0 7.0 0.00 0.00 0.00 82 1016.8
20260831143017 76 203 4.0 7.0 0.00 0.00 0.00 83 1016.8
20260831142017 76 203 2.0 4.0 0.00 0.00 0.00 85 1016.9
20260831141017 75 180 3.0 5.0 0.00 0.00 0.00 86 1016.9
20260831140017 74 180 3.0 5.0 0.00 0.00 0.00 88 1016.8
20260831135017 73 180 2.0 4.0 0.00 0.00 0.00 90 1016.8